When you browse on this site, cookies collect data to enhance your experience and personalize the content and advertising you see.
Visit our Privacy Policy to learn more. By continuing to use the site, you agree to this use of cookies and data.
  • In Hungary
  • List of Countries
  • For 7 days
  • Water Temperature
  • Weather Map
  • News
  • Weather Widgets
  • user-avatar
    Login

    Hourly Weather Perevoloka

    Today, 23 January, Thursday

    Time Temperature Precipitation Wind Pressure Humidity
    00:00 -8°C° 0 mm 6 mps 732 mmHg 75%
    01:00 -8°C° 0 mm 6 mps 733 mmHg 73%
    02:00 -8°C° 0 mm 6 mps 734 mmHg 71%
    03:00 -8°C° 0 mm 6 mps 734 mmHg 72%
    04:00 -8°C° 0 mm 6 mps 734 mmHg 72%
    05:00 -7°C° 0 mm 5 mps 734 mmHg 73%
    06:00 -8°C° 0 mm 5 mps 735 mmHg 68%
    07:00 -8°C° 0 mm 5 mps 736 mmHg 63%
    08:00 -8°C° 0 mm 5 mps 736 mmHg 59%
    09:00 -7°C° 0 mm 5 mps 737 mmHg 59%
    10:00 -7°C° 0 mm 5 mps 737 mmHg 59%
    11:00 -6°C° 0 mm 5 mps 737 mmHg 59%
    12:00 -6°C° 0 mm 6 mps 737 mmHg 61%
    13:00 -6°C° 0 mm 6 mps 738 mmHg 62%
    14:00 -5°C° 0 mm 6 mps 738 mmHg 63%
    15:00 -5°C° 0 mm 5 mps 738 mmHg 64%
    16:00 -6°C° 0 mm 5 mps 738 mmHg 66%
    17:00 -5°C° 0 mm 4 mps 738 mmHg 67%
    18:00 -5°C° 0 mm 4 mps 738 mmHg 69%
    19:00 -5°C° 0 mm 3 mps 738 mmHg 71%
    20:00 -5°C° 0 mm 3 mps 738 mmHg 72%
    21:00 -5°C° 0 mm 3 mps 738 mmHg 76%
    22:00 -5°C° 0 mm 3 mps 737 mmHg 79%
    23:00 -5°C° 0 mm 3 mps 737 mmHg 83%

    Tomorrow, 24 January, Friday

    Time Temperature Precipitation Wind Pressure Humidity
    00:00 -5°C° 0 mm 3 mps 737 mmHg 85%
    01:00 -4°C° 0 mm 3 mps 736 mmHg 86%
    02:00 -4°C° 0 mm 4 mps 736 mmHg 88%
    03:00 -4°C° 0 mm 4 mps 735 mmHg 88%
    04:00 -4°C° 0 mm 4 mps 734 mmHg 87%
    05:00 -4°C° 0 mm 4 mps 733 mmHg 87%
    06:00 -3°C° 0.1 mm 4 mps 732 mmHg 90%
    07:00 -2°C° 0.1 mm 4 mps 732 mmHg 93%
    08:00 -2°C° 0.1 mm 5 mps 731 mmHg 95%
    09:00 -1°C° 0 mm 4 mps 731 mmHg 95%
    10:00 -1°C° 0 mm 4 mps 730 mmHg 94%
    11:00 0°C° 0 mm 4 mps 729 mmHg 94%
    12:00 0°C° 0 mm 4 mps 729 mmHg 93%
    13:00 +1°C° 0 mm 5 mps 729 mmHg 92%
    14:00 +1°C° 0 mm 5 mps 728 mmHg 90%
    15:00 +1°C° 0 mm 5 mps 728 mmHg 91%
    16:00 +1°C° 0 mm 5 mps 728 mmHg 91%
    17:00 +1°C° 0 mm 5 mps 728 mmHg 91%
    18:00 0°C° 0.3 mm 5 mps 728 mmHg 92%
    19:00 0°C° 0.3 mm 5 mps 728 mmHg 93%
    20:00 0°C° 0.3 mm 5 mps 729 mmHg 94%
    21:00 0°C° 0.1 mm 4 mps 729 mmHg 93%
    22:00 -1°C° 0.1 mm 4 mps 729 mmHg 93%
    23:00 -1°C° 0.1 mm 4 mps 728 mmHg 92%

    Day after tomorrow, 25 January, Saturday

    Time Temperature Precipitation Wind Pressure Humidity
    00:00 0°C° 0 mm 3 mps 728 mmHg 93%
    01:00 -1°C° 0 mm 3 mps 728 mmHg 94%
    02:00 -1°C° 0 mm 3 mps 728 mmHg 94%
    03:00 -1°C° 0 mm 3 mps 728 mmHg 94%
    04:00 -2°C° 0 mm 4 mps 727 mmHg 94%
    05:00 -2°C° 0 mm 4 mps 727 mmHg 94%
    06:00 -1°C° 0 mm 5 mps 727 mmHg 90%
    07:00 -1°C° 0 mm 5 mps 727 mmHg 86%
    08:00 -2°C° 0 mm 6 mps 727 mmHg 82%
    09:00 -2°C° 0 mm 6 mps 727 mmHg 78%
    10:00 -2°C° 0 mm 6 mps 727 mmHg 75%
    11:00 -2°C° 0 mm 6 mps 727 mmHg 71%
    12:00 -3°C° 0.1 mm 7 mps 727 mmHg 72%
    13:00 -3°C° 0.1 mm 7 mps 727 mmHg 72%
    14:00 -4°C° 0.1 mm 8 mps 727 mmHg 73%
    15:00 -3°C° 0.2 mm 7 mps 728 mmHg 72%
    16:00 -4°C° 0.2 mm 6 mps 728 mmHg 71%
    17:00 -4°C° 0.2 mm 6 mps 728 mmHg 70%
    18:00 -4°C° 0 mm 6 mps 729 mmHg 71%
    19:00 -5°C° 0 mm 5 mps 730 mmHg 71%
    20:00 -5°C° 0 mm 5 mps 731 mmHg 72%
    21:00 -5°C° 0 mm 5 mps 731 mmHg 73%
    22:00 -5°C° 0 mm 5 mps 732 mmHg 73%
    23:00 -6°C° 0 mm 5 mps 733 mmHg 74%

    26 January, Sunday

    Time Temperature Precipitation Wind Pressure Humidity
    00:00 -6°C° 0 mm 5 mps 733 mmHg 75%
    01:00 -5°C° 0 mm 4 mps 734 mmHg 76%
    02:00 -5°C° 0 mm 4 mps 735 mmHg 77%
    03:00 -5°C° 0 mm 4 mps 735 mmHg 78%
    04:00 -5°C° 0 mm 4 mps 736 mmHg 80%
    05:00 -5°C° 0 mm 3 mps 736 mmHg 81%
    06:00 -5°C° 0 mm 3 mps 737 mmHg 82%
    07:00 -6°C° 0 mm 3 mps 737 mmHg 84%
    08:00 -6°C° 0 mm 3 mps 738 mmHg 85%
    09:00 -5°C° 0 mm 3 mps 738 mmHg 82%
    10:00 -3°C° 0 mm 2 mps 739 mmHg 79%
    11:00 -3°C° 0 mm 2 mps 739 mmHg 76%
    12:00 -3°C° 0 mm 2 mps 740 mmHg 74%
    13:00 -2°C° 0 mm 2 mps 740 mmHg 72%
    14:00 -2°C° 0 mm 2 mps 740 mmHg 70%
    15:00 -2°C° 0 mm 2 mps 740 mmHg 73%
    16:00 -3°C° 0 mm 2 mps 740 mmHg 76%
    17:00 -3°C° 0 mm 2 mps 740 mmHg 78%
    18:00 -3°C° 0 mm 2 mps 740 mmHg 80%
    19:00 -3°C° 0 mm 2 mps 740 mmHg 82%
    20:00 -2°C° 0 mm 2 mps 740 mmHg 85%
    21:00 -2°C° 0.1 mm 2 mps 740 mmHg 88%
    22:00 -2°C° 0.1 mm 3 mps 740 mmHg 92%
    23:00 -2°C° 0.1 mm 3 mps 740 mmHg 96%

    27 January, Monday

    Time Temperature Precipitation Wind Pressure Humidity
    00:00 -2°C° 0.3 mm 3 mps 740 mmHg 97%
    01:00 -1°C° 0.3 mm 3 mps 739 mmHg 97%
    02:00 -1°C° 0.3 mm 3 mps 739 mmHg 97%
    03:00 -1°C° 0.2 mm 3 mps 739 mmHg 97%
    04:00 -2°C° 0.2 mm 4 mps 738 mmHg 97%
    05:00 -2°C° 0.2 mm 4 mps 738 mmHg 97%
    06:00 -1°C° 0.1 mm 4 mps 738 mmHg 97%
    07:00 -1°C° 0.1 mm 4 mps 738 mmHg 97%
    08:00 0°C° 0.1 mm 3 mps 738 mmHg 97%
    09:00 0°C° 0.1 mm 3 mps 738 mmHg 97%
    10:00 0°C° 0.1 mm 3 mps 738 mmHg 97%
    11:00 0°C° 0.1 mm 3 mps 737 mmHg 97%
    12:00 -1°C° 0.2 mm 4 mps 737 mmHg 97%
    13:00 -1°C° 0.2 mm 4 mps 736 mmHg 97%
    14:00 -1°C° 0.2 mm 4 mps 736 mmHg 96%
    15:00 -1°C° 0.2 mm 4 mps 736 mmHg 97%
    16:00 -1°C° 0.2 mm 4 mps 735 mmHg 97%
    17:00 -1°C° 0.2 mm 4 mps 735 mmHg 97%
    18:00 -1°C° 0.1 mm 4 mps 735 mmHg 96%
    19:00 -1°C° 0.1 mm 4 mps 734 mmHg 96%
    20:00 -1°C° 0.1 mm 4 mps 734 mmHg 96%
    21:00 -2°C° 0.2 mm 4 mps 733 mmHg 96%
    22:00 -2°C° 0.2 mm 4 mps 733 mmHg 96%
    23:00 -2°C° 0.2 mm 4 mps 732 mmHg 97%

    28 January, Tuesday

    Time Temperature Precipitation Wind Pressure Humidity
    00:00 -2°C° 0.5 mm 4 mps 732 mmHg 97%
    01:00 -1°C° 0.5 mm 4 mps 732 mmHg 97%
    02:00 -1°C° 0.5 mm 4 mps 731 mmHg 97%
    03:00 -1°C° 0.4 mm 4 mps 732 mmHg 94%
    04:00 -1°C° 0.4 mm 4 mps 732 mmHg 92%
    05:00 -1°C° 0.4 mm 4 mps 732 mmHg 89%
    06:00 -1°C° 0 mm 4 mps 733 mmHg 89%
    07:00 -2°C° 0 mm 4 mps 733 mmHg 89%
    08:00 -2°C° 0 mm 4 mps 733 mmHg 89%
    09:00 -2°C° 0 mm 4 mps 734 mmHg 87%
    10:00 -2°C° 0 mm 4 mps 734 mmHg 85%
    11:00 -2°C° 0 mm 4 mps 735 mmHg 83%
    12:00 -2°C° 0 mm 4 mps 735 mmHg 83%
    13:00 -1°C° 0 mm 3 mps 734 mmHg 84%
    14:00 -1°C° 0 mm 3 mps 734 mmHg 84%
    15:00 -1°C° 0 mm 3 mps 734 mmHg 85%
    16:00 -2°C° 0 mm 4 mps 734 mmHg 86%
    17:00 -2°C° 0 mm 4 mps 734 mmHg 87%
    18:00 -2°C° 0 mm 4 mps 733 mmHg 89%
    19:00 -1°C° 0 mm 4 mps 733 mmHg 92%
    20:00 -1°C° 0 mm 5 mps 732 mmHg 94%
    21:00 0°C° 0.1 mm 5 mps 731 mmHg 93%
    22:00 0°C° 0.1 mm 5 mps 731 mmHg 92%
    23:00 +1°C° 0.1 mm 6 mps 730 mmHg 91%
    Show more